星链-35180 (STARLINK-35180)

导读

STARLINK-35180是美国太空探索技术公司(SpaceX)于2025年9月3日发射的星链低轨通信卫星,隶属于星链全球互联网星座项目。该卫星采用Starlink V1.0平台设计,运行在近地轨道近地点约482公里处,轨道倾角43°,周期约94.3分钟。 作为星链星座组网卫星,它搭载Ku/Ka波段通信载荷与霍尔推进系统,旨在为全球提供高速低延迟宽带服务,助力缩小数字鸿沟,同时也可为特殊行业通信提供支撑,设计寿命约5至7年,寿命末期将主动离轨销毁。

Basic Information
目录编号:
65462
目录名称:
STARLINK-35180
国际标识:
2025-195E
轨道中心:
EARTH
卫星名称:
星链-35180
卫星全名:
星链-35180 (STARLINK-35180)
卫星状态:
在轨 (已飞行366 天)
发射日期:
2025-09-03 UTC
国别 :
美国 (US)
星等 :
--
Orbit Information
数据来源 国际轨道数据
星历时间: 2026-09-03T10:47:36+0800
1天前
查看轨道信息
半长轴: 6840.795km
偏心率: 0.000152
轨道倾角: 53.157°
近地点辐角 102.627°
升交点赤经 150.856°
平近点角 257.491°
近地点: 461.618km
远地点: 463.698km
周期: 93.847分钟
每日圈数: 15.344153
Detailed Information
固有亮度:
5
最大亮度:
2.5
卫星平台:
Starlink V1.0
覆盖范围:
全球
运营商:
太空探索技术公司
运营商所在国:
美国
制造商(研发单位):
太空探索技术公司
制造商所在国:
美国
使用方式:
暂无
Satellite Introduction
Starlink 计划是 SpaceX 推出的全球卫星互联网项目,通过发射低轨道卫星,为全球尤其是偏远地区提供高速、低延迟的互联网服务。自 2019 年起,Starlink 已部署数千颗卫星,旨在缩小全球数字鸿沟,推动互联网普及。该项目还为军事、航空等行业提供通信支持,带来广泛经济效益。
2D Orbit Map
3D Orbit Map
Orbit Altitude Analysis Chart
Orbit Inclination Analysis Chart
Orbit Comprehensive Analysis Chart
View Comprehensive Chart
Conjunction Data List
Event ID Objects TCA Miss Dist (km) Collision Risk Probability Collision Risk Index (CRI) Action
CDM_260904-233206-546206-662221
2026-09-04T
23:32:38+0000
1.500 km
极远距离
5.262969E-6 低风险 0.49
CDM_260904-145606-546206-662221
2026-09-04T
14:56:49+0000
1.539 km
极远距离
4.856521E-6 低风险 0.49